www.pogodaiklimat.ru

Погода и климат >> Архив погоды >> Монголия >> Алтай


ПОГОДА в Алтае

  • Прогноз погоды в Алтае
  • Монитор погоды в Алтае

АРХИВ ПОГОДЫ в Алтае

Время (UTC), дата Ветер
(напр.,м/с)
 
Видим.   Явления Облачность Т
(С)
Тd
(С)
f
(%)
Тe
(С)
Тes
(С)
Комфортность P
(гПа)
Po
(гПа)
Тmin
(С)
Tmax
(С)
R
(мм)
R24
(мм)
S
(см)
18 13.09 З 9 н/о 4/0
[Ac lent Ci fib]
+3.3 -12.2 31 -2 -2 1022.9 781.6
21 13.09 З 10 н/о 4/0
[Ac lent]
+2.9 -11.4 34 -3 -3 1022.4 780.9
00 14.09 ЮЗ 8 50 км 9/3 1000 м
[Cu Sc Ac As]
+4.1 -11.9 30 -1 -1 1022.4 781.8 +1.2
03 14.09 ЮЗ 3
{11}
50 км 8/3 1000 м
[Sc Ac As]
+8.0 -9.9 27 +6 +8 1020.4 783.2
06 14.09 З 7 50 км 5/5 1000 м
[Cu med, cong]
+10.0 -9.6 24 +7 +9 1018.7 783.3
09 14.09 З 7 50 км 5/5 1000 м
[Cu med, cong]
+9.6 -8.5 27 +7 +7 1018.5 782.9
12 14.09 С 5 50 км 8/0
[Ac lent Ci]
+7.3 -8.3 32 +4 +4 1022.1 783.9 +11.9
15 14.09 штиль 0 н/о 4/0
[Ac cast]
+4.0 -8.1 41 +4 +4 1027.4 785.5
18 14.09 ЮЗ 1 н/о 6/3 1000 м
[Sc Ac trans Ci]
+1.5 -7.8 50 0 0 1029.8 785.5
21 14.09 ЮЗ 2 н/о 5/3 1000 м
[Sc Ci]
-1.3 -7.0 65 -5 -5 1031.7 784.7
00 15.09 штиль 0 50 км 5/3 1000 м
[Sc Ac cast]
+1.1 -5.8 60 +1 +1 1029.9 785.2 -1.6
03 15.09 В 2 50 км 1/1 1000 м
[Cu hum]
+9.0 -7.6 30 +8 +14 1021.9 785.1
06 15.09 ЮЗ 4 50 км 5/5 1000 м
[Cu med, cong]
+11.5 -10.1 21 +10 +14 1017.7 783.6
09 15.09 З 9 50 км ясно +11.8 -14.8 14 +9 +10 1015.9 782.5
12 15.09 З 6
{12}
50 км ясно +8.6 -13.1 20 +6 +6 1019.2 782.7 +12.5
15 15.09 З 2 н/о ясно +3.2 -11.5 33 +1 +1 1026.0 783.9
18 15.09 Ю 2 н/о ясно +1.5 -9.1 45 -1 -1 1027.7 783.8
21 15.09 ЮЗ 2 н/о ясно -0.1 -9.0 51 -3 -3 1028.9 783.5
00 16.09 З 2 50 км ясно +1.3 -8.8 47 -1 -1 1028.5 784.4 -0.8
03 16.09 СВ 1 50 км 1/1 1000 м
[Cu hum]
+9.9 -8.7 26 +10 +17 1021.6 785.5
06 16.09 СВ 5 50 км 4/4 1000 м
[Cu hum]
+12.1 -8.4 23 +10 +14 1018.7 784.9
09 16.09 СВ 7 50 км 3/3 1000 м
[Cu hum]
+11.8 -11.1 19 +9 +10 1018.5 784.5
12 16.09 СВ 2
{10}
50 км ясно +9.0 -8.1 29 +8 +8 1023.0 785.9 +12.5
15 16.09 штиль 0 н/о ясно +3.9 -8.5 40 +4 +4 1030.2 787.6
18 16.09 З 1 н/о ясно +2.4 -8.0 46 +2 +2 1032.3 788.1
21 16.09 ЮЗ 2 н/о ясно +0.1 -7.2 58 -3 -3 1034.6 788.1
00 17.09 Ю 1 50 км ясно +1.8 -7.8 49 +1 +1 1034.1 789.0 -0.9
03 17.09 С 1 50 км 6/0
[Ci sp]
+8.7 -7.5 31 +9 +16 1028.0 789.6
06 17.09 ЮЗ 3 50 км 6/0
[Ci sp]
+15.4 -13.9 12 +15 +23 1020.6 788.7
09 17.09 ЮЗ 6 50 км 6/0
[Ac trans Ci sp]
+15.8 -11.6 14 +15 +16 1019.1 787.8
12 17.09 З 3
{9}
50 км 9/5 1000 м
[Sc Ac trans Cs]
+11.1 -11.7 19 +10 +10 1024.5 788.6 +17.1
15 17.09 ЮЗ 7 н/о 9/4 1000 м
[Sc Ac trans Ci fib]
+9.8 -10.9 22 +7 +7 1026.9 789.5
18 17.09 ЮЗ 5 н/о 8/4 1000 м
[Sc Ac trans Cs]
+6.2 -8.5 34 +3 +3 1030.8 789.9
21 17.09 ЮЗ 4 н/о 10/6 1000 м
[Sc Ac und]
+7.0 -3.8 46 +4 +4 1029.5 789.4
00 18.09 ЮЗ 5 50 км 9/8 1000 м
[Cu Sc Ac lent Cs]
+8.8 -2.8 44 +6 +6 1028.9 790.3 +5.6
03 18.09 ЮЗ 6
{12}
50 км 9/4 1000 м
[Cu Sc Ac lent Ci sp]
+10.4 -2.0 42 +8 +9 1027.9 790.7
06 18.09 ЮЗ 6
{14}
50 км {дождь} 10/5 1000 м
[Sc Ac As]
+9.4 0.0 52 +6 +7 1027.5 789.7
09 18.09 З 7 10 км слаб. дождь 10/10 600 м
[Frnb Ns]
+5.4 +3.1 85 0 0 1031.0 789.4
12 18.09 С 7 4000 м слаб. дождь 9/9 600 м
[Sc As op]
+5.2 +1.5 77 -0 -0 1032.1 790.0 +10.8 2
15 18.09 З 3
{12}
н/о {дождь} 10/10 600 м
[Sc As op]
+4.6 +2.5 86 +1 +1 1032.6 790.0
18 18.09 Ю 2 н/о {дождь} 10/10 600 м
[Sc]
+4.5 +2.5 87 +2 +2 1032.5 789.8
21 18.09 З 4 н/о 5/3 1000 м
[Sc Ac und]
+4.5 +0.8 77 0 0 1031.9 789.4
00 19.09 С 2 50 км 4/3 1000 м
[Sc]
+5.9 -0.4 64 +4 +4 1031.6 790.2 +10.9 1
03 19.09 СВ 2 50 км ясно +9.1 0.0 53 +8 +14 1029.0 790.6
06 19.09 В 2 50 км 1/1
[Cu med, cong]
+11.4 -1.7 40 +11 +20 1026.1 790.1
09 19.09 СВ 1
{9}
50 км 3/0
[Ci]
+13.2 -3.6 31 +14 +18 1023.3 789.2
12 19.09 В 2 50 км 3/0
[Ci]
+11.0 -0.5 45 +10 +10 1026.0 789.7 +13.7
15 19.09 З 1 н/о 1/0
[Ci]
+5.5 +0.7 71 +5 +5 1032.5 790.6
18 19.09 З 2 н/о 1/0
[Ci]
+3.1 -0.5 77 0 0 1033.9 789.8
21 19.09 ЮЗ 3 н/о ясно +4.3 -5.5 49 +1 +1 1031.7 789.0
00 20.09 З 2 50 км 3/0
[Ci]
+4.2 -4.0 55 +2 +2 1032.1 789.3 +2.0
03 20.09 ЮЗ 6 50 км 6/0
[Cs]
+15.3 -7.5 20 +14 +16 1021.6 789.3
06 20.09 З 8 50 км 8/0
[Cs]
+16.5 -7.9 18 +15 +17 1019.2 788.4
09 20.09 З 10 50 км 9/3 1000 м
[Cu hum Cs]
+16.4 -7.3 19 +15 +15 1018.8 788.0
12 20.09 ЮЗ 5
{11}
50 км 6/3 1000 м
[Sc diur, vesp Ac trans]
+12.8 -5.2 28 +11 +11 1022.3 788.1 +16.4
15 20.09 ЮЗ 5 н/о 4/0
[Ac trans]
+9.5 -5.6 34 +7 +7 1026.8 789.2

 

Местоположение метеостанции Алтай (Монголия): широта 46.40 долгота 96.25 высота над уровнем моря 2181 м.

В архиве по умолчанию представлена погода в Алтае за последнюю неделю. Архивные данные за месяц целиком и за предыдущие месяцы, начиная с января 2011 года, Вы можете получить, выбрав интересующий диапазон дат из раскрывающегося списка и нажав кнопку "Ввод!".


*Определитесь, кто Вы:
робот инопланетянин человек

Внимание! Время в таблицах - всемирное. Для получения местного времени необходимо прибавить поправку, которая равна 8 ч.

Смотрите также архив погоды в соседних городах и на ближайших метеорологических станциях:

Погода в Баянбулаге (Монголия) (148 км)
Погода в Улиастае (Монголия) (157 км)
Погода в Тонхиле (Монголия) (181 км)
Погода в Эрдэни (Монголия) (182 км)
Погода в Цэцэн-Ууле (Монголия) (264 км)
Погода в Амарбуйантайане (Монголия) (275 км)
Погода в Ургамале (Монголия) (278 км)
Погода в Тосонцэнгэле (Монголия) (298 км)
Погода в Галууте (Монголия) (299 км)
Погода в Тариате (Монголия) (311 км)

Пояснения к столбцам:

Ветер - указаны скорость ветра в м/с - средняя за 10 мин, порывы в срок и между сроками (в фигурных скобках) и направление, откуда дует ветер: С - северный, СВ - северо-восточный, В - восточный, ЮВ - юго-восточный, Ю - южный, ЮЗ - юго-западный, З - западный, СЗ - северо-западный.
Видимость - горизонтальная дальность видимости в метрах или километрах. При видимости от 1 до 10 км при отсутствии осадков обычно наблюдается дымка, при ухудшении видимости до 1 км и менее - туман. В сухую погоду видимость может ухудшаться дымом, пылью или мглою.
Явления - указаны атмосферные явления, наблюдавшиеся в срок или в последний час перед сроком; фигурными скобками обозначены явления, наблюдавшиеся между сроками (за 1-3 часа до срока); квадратными скобками обозначены град или гололедные отложения с указанием их диаметра в мм.
Облачность - указаны через наклонную черту общая и нижняя облачность в баллах и высота нижней границы облаков в метрах; квадратными скобками обозначены формы облаков: Ci - перистые, Cs - перисто-слоистые, Cc - перисто-кучевые, Ac - высококучевые, As - высокослоистые, Sc - слоисто-кучевые, Ns - слоисто-дождевые, Cu - кучевые, Cb - кучево-дождевые. Подробнее классификацию облаков см. в Атласе облаков (PDF).
T - Температура воздуха - температура, измеренная на высоте 2 м над землей.
Td - Температура точки росы - температура, при понижении до которой содержащийся в воздухе водяной пар достигнет насыщения.
f - Относительная влажность воздуха - влажноcть воздуха, измеренная на высоте 2 м над землей.
Te - Эффективная температура - температура, которую ощущает одетый по сезону человек в тени. Характеристика душности погоды. При расчете учитывается влияние влажности воздуха и скорости ветра на теплоощущения человека.
Tes - Эффективная температура на солнце - температура, которую ощущает человек, с поправкой на солнечный нагрев. Характеристика знойности погоды. Зависит от высоты солнца над горизонтом, облачности и скорости ветра. Ночью, в пасмурную погоду, а также при ветре 12 м/с и более поправка равна нулю.
P - Атмосферное давление - приведенное к уровню моря атмосферное давление.
Po - Атмосферное давление - измеренное на уровне метеостанции атмосферное давление.
Tmin - Минимальная температура - минимум температуры воздуха на высоте 2 м над землей.
Tmax - Максимальная температура - максимум температуры воздуха на высоте 2 м над землей.
R - Количество осадков - Количество выпавших осадков за период времени, мм. При наведении курсора мыши на число - период времени, за который выпало указанное количество осадков.
R24 - Количество осадков - Количество выпавших осадков за 24 часа, мм.
S - Снежный покров - Высота снежного покрова, см. При наведении курсора мыши на число - состояние снежного покрова и степень покрытия местности в баллах.